Wind_Speed
49 49 48 47 46 46 45 44 43 43 42 41 41 40 40 39 38 38 37 37 36 35 34 34 33 32 32 31 31 30 30 30 29 29 28 28 27 27 27 26 26 25 25 25 26 26 25 25 24 24 24 23 22 21 21 21 20 20 19 19 19 18 17 17 16 15 14 13 12 13 13 13 13 14 15 15 14 13 14 16 15 15 15 13 11 10 10 10
50 50 49 49 48 48 47 46 45 45 44 43 42 42 41 41 40 40 39 38 38 37 36 35 34 34 33 32 32 31 31 30 30 30 29 29 28 28 27 27 27 26 27 27 27 27 27 26 25 25 25 24 23 22 22 21 21 21 20 20 19 18 17 17 16 15 15 14 13 14 14 14 14 14 15 16 15 14 15 16 14 14 16 15 13 12 11 11
50 50 50 50 50 49 49 48 47 46 46 45 44 43 43 43 42 41 41 40 39 38 37 37 36 35 34 34 33 32 32 31 31 31 30 30 29 29 28 28 28 28 28 28 28 28 27 27 26 26 25 25 24 23 22 22 21 21 20 20 20 19 18 17 16 16 16 15 14 14 15 16 16 15 15 16 17 15 16 16 14 14 15 16 15 14 13 12
51 51 51 51 51 51 50 49 49 48 47 47 46 45 45 44 43 43 42 42 41 40 39 38 37 37 36 35 34 33 33 32 32 32 32 31 31 30 30 29 29 29 29 29 29 29 28 28 27 27 26 25 25 24 23 23 22 22 21 21 21 20 19 18 17 16 17 16 16 15 16 17 17 16 16 18 19 17 17 17 16 15 15 16 16 16 15 15
51 51 51 51 52 52 51 51 51 50 49 49 48 47 46 46 45 44 44 43 42 41 41 40 39 38 37 36 35 34 34 33 33 33 32 32 32 32 31 31 30 30 30 30 30 30 29 29 28 28 27 27 26 25 25 24 23 23 22 22 21 21 20 19 18 18 18 18 17 17 17 17 17 17 17 19 20 19 18 18 18 17 16 16 16 16 17 17
51 52 52 52 52 52 52 52 52 52 51 50 49 48 48 47 46 46 45 44 44 43 42 41 41 40 39 38 37 36 35 35 35 34 34 34 33 33 33 32 32 32 32 32 32 31 31 30 29 29 28 28 27 27 26 25 24 24 23 23 22 22 21 20 19 19 19 19 19 18 18 18 18 17 18 20 20 19 19 18 19 19 18 18 17 17 17 17
51 51 52 52 53 52 52 52 53 53 53 52 51 51 50 49 48 48 47 46 45 44 44 43 42 42 41 40 39 38 36 36 37 35 35 35 35 35 35 34 34 34 34 34 33 33 32 31 31 30 29 29 28 28 27 27 26 25 25 24 23 23 22 21 21 20 21 21 20 19 18 18 18 18 19 20 20 19 19 19 19 20 20 20 19 19 19 19
50 51 51 52 52 52 53 53 53 53 53 53 53 53 52 51 50 50 49 48 47 47 46 45 44 43 43 42 41 40 38 38 38 37 36 36 36 36 36 36 36 36 36 35 34 34 33 32 32 31 31 30 30 29 29 28 28 27 26 25 25 24 23 22 22 22 23 23 22 20 19 19 19 19 20 21 22 21 20 19 19 20 21 21 21 21 21 21
51 50 50 51 51 52 52 52 53 53 53 54 54 54 54 54 53 52 51 50 49 49 48 47 46 45 44 44 43 42 40 39 39 39 38 38 38 38 38 38 38 37 37 36 35 34 34 33 33 32 32 32 31 31 30 30 29 28 27 27 26 25 24 24 23 24 25 25 24 21 19 19 19 21 22 22 23 23 22 20 20 20 21 21 21 21 22 22
54 52 51 50 51 51 51 52 52 53 53 53 54 54 55 55 54 54 53 52 52 51 50 49 48 47 46 45 44 44 42 40 41 41 40 40 39 40 40 40 39 39 37 36 36 35 34 34 34 33 33 33 32 32 32 31 31 30 29 28 27 26 25 25 25 26 27 27 25 22 20 20 20 21 23 23 24 24 23 22 22 22 22 21 21 22 22 23
57 56 54 53 52 51 51 51 52 52 53 53 54 54 55 55 55 55 55 54 54 53 52 51 51 49 48 47 46 46 44 42 43 44 43 42 42 42 42 42 41 39 38 37 36 35 35 34 34 33 33 34 33 33 33 33 32 32 31 30 29 28 27 27 28 29 29 28 26 24 22 22 21 22 23 24 25 24 24 24 24 24 23 22 22 23 23 24
60 59 58 56 55 53 52 51 51 52 52 53 53 54 54 55 55 55 55 55 55 54 54 53 52 51 50 49 48 48 46 44 45 45 45 45 44 44 44 43 42 40 38 37 36 36 35 35 34 34 34 35 34 34 34 34 34 33 33 32 31 30 29 30 31 31 30 29 27 25 24 23 23 24 25 25 25 25 25 25 25 25 24 24 24 24 25 25
60 60 60 60 58 56 54 53 52 51 52 53 53 53 53 54 54 55 55 56 56 55 55 54 54 53 51 50 51 50 48 47 47 47 48 47 46 46 45 43 42 40 39 38 37 36 36 35 35 35 35 35 35 34 34 35 34 34 34 33 33 31 31 33 33 31 31 30 29 27 25 25 26 25 26 26 26 26 26 26 26 26 25 25 25 25 26 26
60 60 60 60 61 60 58 56 54 52 52 52 53 53 53 53 54 54 55 55 56 56 56 55 55 54 53 52 53 52 51 51 49 49 49 48 48 47 46 44 42 41 39 38 38 37 37 37 36 36 36 36 36 35 34 35 35 34 34 33 34 34 33 35 34 31 32 31 30 28 26 26 28 27 26 27 27 27 26 26 26 26 27 26 26 26 26 27
63 62 61 60 61 62 61 59 57 55 53 52 52 52 53 53 53 54 54 55 55 56 56 56 55 55 54 53 55 55 54 53 52 51 49 48 48 48 47 46 44 43 41 40 39 39 38 38 38 37 38 37 37 36 35 36 35 35 34 33 36 37 34 34 34 32 33 31 29 28 27 26 29 29 28 28 29 28 27 26 26 27 27 27 26 27 27 28
64 64 64 63 62 62 63 62 60 58 56 54 53 52 52 53 53 53 53 54 54 55 55 55 56 56 54 54 56 56 56 55 53 51 49 49 49 49 48 47 46 45 43 42 41 40 40 40 39 39 39 39 39 38 37 36 36 35 34 35 38 38 33 32 34 33 32 31 29 28 28 27 29 30 29 30 30 28 27 26 27 28 27 27 27 28 29 29
67 65 65 65 65 64 63 63 62 61 59 58 56 55 54 53 53 53 53 53 53 54 55 55 56 56 54 54 56 57 56 55 53 52 51 51 50 50 50 48 47 46 45 45 43 43 43 41 41 40 41 42 42 41 38 36 36 36 37 38 38 37 35 32 33 34 32 30 29 29 29 29 29 31 32 32 31 28 27 28 28 29 28 28 29 29 30 30
70 68 66 66 66 65 64 64 63 63 62 62 60 59 57 56 55 54 53 53 53 54 54 54 56 56 54 53 55 56 57 55 54 54 53 52 52 51 50 49 49 48 48 47 46 46 45 44 43 42 43 46 45 42 38 37 38 38 39 39 38 37 37 34 32 34 32 30 29 30 31 31 30 32 33 33 31 29 29 29 30 30 30 30 31 31 31 31
72 71 69 67 67 67 67 66 65 64 64 64 63 62 60 59 58 57 56 55 54 54 54 55 57 55 52 53 55 56 57 56 55 55 54 54 53 52 52 51 51 50 50 49 49 49 48 46 44 44 48 50 46 43 41 41 41 40 39 40 40 38 39 36 33 33 32 31 31 31 32 33 32 32 34 34 32 31 31 31 32 32 32 33 33 33 33 33
73 72 71 70 69 68 68 68 67 67 67 65 65 64 63 62 61 60 59 58 57 57 56 54 55 54 51 52 55 56 57 57 56 55 55 55 55 54 53 53 53 52 52 52 51 51 50 47 46 50 53 51 46 45 44 44 44 42 41 41 41 40 41 39 34 33 33 31 33 34 34 35 34 33 35 36 34 33 34 34 34 34 35 35 35 35 35 35
76 74 72 71 71 70 70 69 67 68 69 67 66 66 65 64 64 62 61 61 61 59 57 54 53 52 50 51 54 56 57 57 56 56 56 56 56 55 55 55 55 55 55 55 53 53 51 48 49 55 55 50 48 48 48 47 46 45 44 43 42 42 43 41 36 35 35 33 34 36 36 37 36 35 37 37 36 36 36 36 36 36 37 37 37 37 37 38
79 77 75 73 72 71 71 70 69 69 69 69 68 68 69 68 67 65 63 63 61 61 59 55 53 51 50 51 53 55 56 55 56 56 56 56 56 56 56 57 57 56 57 56 55 54 52 49 52 56 54 51 51 51 50 49 48 48 47 46 44 45 45 43 38 36 37 36 35 37 37 37 38 37 38 39 38 38 38 38 38 38 38 39 39 39 39 39
82 81 79 76 73 72 72 72 71 69 70 70 70 71 71 71 70 68 67 65 62 62 60 56 54 52 50 50 52 54 55 54 55 56 56 56 56 56 56 57 58 57 57 58 57 56 53 52 55 57 55 54 53 52 52 51 51 51 50 48 47 48 47 44 41 40 41 38 37 39 38 38 40 40 41 41 40 41 41 40 40 40 40 40 40 41 41 41
84 83 82 79 77 75 74 73 71 70 71 71 71 72 72 72 71 71 70 69 65 62 61 59 56 53 51 51 54 55 54 54 55 54 56 57 57 57 56 58 59 57 57 59 59 58 54 53 56 58 58 56 54 53 54 53 52 52 52 51 51 51 50 47 45 44 45 42 40 42 39 38 43 43 42 44 43 43 43 42 42 42 42 42 42 42 42 42
86 85 84 82 81 79 77 75 71 71 73 73 73 74 73 72 72 72 72 72 67 62 61 61 58 55 54 54 54 55 55 55 54 55 58 58 58 59 58 59 59 57 58 61 60 57 54 53 57 60 59 58 55 54 54 55 54 53 51 53 54 53 51 50 49 48 47 44 45 47 41 39 45 46 45 46 46 45 45 44 44 44 44 44 44 44 44 44
87 86 85 83 83 82 80 75 72 73 74 74 76 75 74 73 74 74 74 74 68 62 62 62 60 57 55 56 56 58 58 54 54 57 59 60 60 61 60 59 60 59 60 62 60 55 52 54 58 60 59 58 56 54 56 58 56 51 50 54 56 54 52 52 51 51 49 46 46 49 45 41 43 48 49 49 48 48 48 47 47 47 46 46 46 46 46 45
87 87 86 84 83 83 80 76 75 75 73 74 77 77 75 75 76 76 77 77 68 61 62 63 62 59 56 58 59 61 58 52 55 60 60 61 62 62 62 60 60 60 60 62 59 54 53 57 58 59 59 58 57 56 57 59 56 50 51 55 56 54 54 53 53 52 51 48 46 47 50 46 43 48 53 53 50 49 50 50 49 48 48 49 48 48 48 47
87 87 86 86 85 84 82 80 77 75 73 74 77 78 77 77 78 77 80 81 67 58 63 65 64 63 60 61 62 63 59 54 58 62 62 64 64 63 62 60 60 61 61 61 58 54 55 57 58 60 60 58 58 59 59 60 57 52 53 55 56 56 56 55 54 53 52 50 45 46 53 52 46 48 53 54 52 52 52 51 50 50 51 50 50 49 49 49
88 87 87 88 87 86 84 83 80 78 77 77 77 79 79 79 79 79 84 82 66 58 62 65 67 66 64 64 64 64 62 60 61 63 65 66 64 63 63 61 61 61 61 61 59 56 55 57 60 61 59 58 59 60 60 60 57 54 55 55 56 57 57 56 55 54 52 48 45 47 55 56 50 47 50 54 54 54 54 53 52 52 52 51 51 51 51 51
90 88 88 89 89 87 85 83 82 84 85 83 82 83 83 82 81 84 87 79 65 60 61 64 68 69 69 68 66 67 67 65 65 66 68 68 66 65 64 63 62 61 61 62 60 57 56 58 61 60 59 59 59 60 60 59 58 57 56 57 57 58 58 57 55 55 53 47 46 51 57 58 52 44 47 54 56 55 54 55 54 54 54 53 53 53 53 53
92 90 89 89 89 88 87 84 82 85 88 89 89 89 87 85 84 88 87 76 67 65 62 63 66 68 70 71 71 71 70 68 68 68 68 68 69 68 65 64 64 63 63 61 59 57 56 57 58 58 59 58 59 59 59 59 59 59 59 59 59 58 57 57 55 55 54 49 49 53 58 59 50 44 47 53 56 57 56 56 56 55 55 55 55 55 55 56
95 93 91 90 89 90 89 86 84 86 89 90 92 93 90 89 90 90 82 73 71 69 64 63 63 66 71 73 74 74 71 70 70 70 70 70 70 69 68 67 67 66 63 59 58 57 56 55 55 56 57 57 59 59 59 59 59 60 60 59 59 59 58 56 56 56 56 53 52 54 58 56 49 47 50 52 55 58 58 57 57 57 57 57 57 57 58 58
98 97 96 93 91 90 90 89 88 88 89 90 93 94 93 94 94 88 79 74 75 71 66 65 65 67 71 73 73 74 74 74 72 72 71 71 71 70 69 69 68 68 65 60 59 57 54 53 53 54 55 57 59 59 58 59 59 60 60 59 58 59 58 56 57 58 57 55 53 54 56 53 47 49 53 54 54 56 57 58 59 59 59 59 59 60 60 61
102 100 99 97 94 92 91 91 90 90 91 93 95 96 97 98 93 85 80 79 78 73 69 69 69 70 71 72 73 74 77 77 75 74 73 72 71 69 69 70 69 69 68 62 58 57 57 55 54 56 57 58 59 59 58 58 59 60 59 58 58 59 60 59 59 60 57 56 55 54 54 51 49 52 55 56 54 55 57 58 59 61 61 61 62 63 63 64
106 104 103 100 98 96 94 94 93 93 94 96 98 100 100 95 87 82 82 82 81 79 76 74 74 74 73 73 73 75 78 77 76 77 77 75 73 70 69 69 67 67 68 65 61 61 62 59 56 58 60 59 59 59 58 58 59 59 58 59 57 59 63 62 61 60 58 57 55 53 53 52 52 53 55 56 56 56 57 58 60 61 62 63 64 65 66 67
108 107 106 102 100 98 97 97 95 95 97 98 101 103 98 90 84 83 83 83 85 85 82 80 80 78 76 75 74 76 78 78 78 80 79 78 76 72 69 67 67 67 67 68 67 65 65 63 59 60 62 61 60 61 60 59 58 57 57 58 58 62 65 63 61 60 59 57 54 53 54 54 55 54 54 56 58 59 59 59 60 61 62 65 66 67 69 69
109 108 107 104 102 100 99 98 97 98 100 102 103 102 95 89 86 85 84 84 86 86 85 84 83 81 79 77 76 77 78 79 80 81 81 80 77 73 69 68 69 69 69 72 73 69 67 65 61 62 63 62 63 63 62 60 59 58 59 60 62 65 65 63 63 61 59 58 55 53 54 55 56 54 55 59 60 60 60 60 61 62 64 66 68 69 71 71
111 110 108 105 103 102 101 99 99 101 103 105 106 102 96 91 88 87 86 87 87 86 87 86 84 82 82 80 78 78 79 80 80 81 82 81 78 73 71 70 70 72 74 77 77 72 69 69 64 64 65 65 66 66 63 62 62 63 64 65 67 67 65 65 64 61 60 60 57 55 54 55 56 56 58 61 62 61 62 63 64 65 67 69 70 71 71 72
111 111 108 104 103 104 103 102 102 104 107 108 107 102 97 94 92 91 90 90 88 88 89 88 86 85 84 83 81 80 80 80 79 80 81 80 78 74 73 74 74 75 78 81 80 75 72 72 67 65 67 68 68 67 65 66 68 69 68 68 69 68 67 67 65 64 63 62 60 59 56 55 57 58 60 62 63 64 64 66 67 69 71 72 72 72 72 74
111 110 106 103 104 104 104 105 105 108 110 110 108 103 99 98 97 96 95 93 92 91 90 90 91 89 86 84 84 82 81 82 80 79 79 78 77 75 75 77 78 79 81 83 82 77 73 73 70 68 69 70 68 67 69 71 73 73 71 70 70 70 70 69 67 66 67 65 64 63 59 56 57 59 61 63 65 67 68 70 72 74 75 75 75 75 75 76
112 111 106 104 106 106 106 108 109 111 113 111 108 104 102 101 100 99 98 98 97 95 94 94 94 93 89 87 86 83 83 85 82 80 79 76 74 75 76 78 81 82 83 84 81 78 76 76 76 72 70 70 69 69 72 73 73 74 73 72 72 73 73 72 70 69 70 69 68 66 62 58 57 59 62 65 68 70 72 75 77 77 78 78 78 77 77 77
116 114 109 107 108 109 110 113 113 113 113 111 108 106 105 105 104 103 103 102 102 100 99 98 97 96 95 92 90 87 86 86 84 81 79 76 75 75 76 79 82 83 84 84 81 80 80 81 80 76 72 72 72 72 73 73 72 72 72 71 73 75 76 76 74 73 73 71 70 70 66 61 61 63 64 67 69 72 76 78 79 79 79 80 79 78 78 77
115 114 110 109 110 111 113 115 116 116 114 111 108 108 107 107 107 107 106 105 105 104 103 101 98 98 97 96 94 92 89 88 87 83 80 78 77 76 76 78 81 82 84 83 82 82 83 84 84 81 78 77 75 73 73 72 71 70 70 73 76 77 78 79 77 75 73 71 72 73 68 64 65 68 69 70 72 75 77 78 79 79 80 81 80 79 78 78
115 112 109 108 110 112 114 116 117 116 114 111 109 108 108 108 108 107 107 107 107 107 105 103 101 99 99 98 97 95 92 91 89 85 83 82 79 77 77 78 80 81 82 83 82 83 85 85 86 85 83 80 77 75 73 73 73 74 76 78 78 77 78 78 77 77 74 71 73 73 69 68 69 70 72 74 75 77 79 79 79 80 81 82 81 80 80 80
120 116 111 109 110 113 114 113 114 114 113 112 111 110 109 110 109 108 109 109 109 109 108 106 104 102 101 101 99 97 94 92 90 87 86 84 82 80 79 80 81 81 82 82 82 84 85 86 87 88 86 81 79 78 77 77 79 80 80 79 78 78 79 78 79 78 73 71 73 73 71 73 73 72 74 76 77 78 79 80 81 82 82 81 81 81 81 81
125 122 117 113 112 114 115 113 112 112 113 113 113 112 112 111 110 110 111 111 111 111 110 109 106 104 102 102 100 98 95 93 92 90 88 86 84 83 82 83 83 83 83 83 84 85 86 87 88 89 87 84 82 81 81 81 82 82 81 80 80 80 80 81 81 77 72 73 74 71 72 75 75 75 77 78 80 81 81 81 82 82 82 81 81 82 83 83
129 126 122 117 114 114 115 116 114 112 111 111 111 112 113 112 112 113 113 111 111 112 112 111 108 105 102 100 99 98 96 95 93 91 89 88 87 86 85 85 86 86 86 86 87 88 89 88 88 89 90 89 88 86 84 83 84 84 84 83 81 80 81 81 80 77 76 77 73 69 73 76 76 78 80 80 82 83 83 83 84 83 83 83 83 85 86 87
130 128 126 123 119 116 115 116 117 116 113 112 111 111 111 111 112 114 113 110 109 110 111 110 108 104 102 100 99 99 98 96 94 91 90 90 89 89 89 89 89 89 89 89 90 91 91 90 89 90 92 92 91 90 88 86 85 86 86 84 82 81 81 79 78 78 79 78 75 75 77 78 80 82 82 83 85 86 85 85 85 85 85 86 87 88 88 88
131 129 128 127 126 123 118 116 118 119 118 117 116 115 113 110 108 109 110 110 109 107 108 107 104 103 102 102 102 102 99 96 93 91 90 91 91 90 90 90 90 90 91 92 93 94 94 91 89 91 92 92 92 91 89 89 88 86 86 84 82 81 80 80 80 81 81 80 80 83 83 83 84 85 85 86 88 88 88 87 87 88 88 88 89 89 90 90
130 129 129 129 128 127 125 121 120 120 120 120 119 118 117 115 110 107 108 110 109 108 107 105 102 102 104 105 105 104 100 97 95 92 92 92 91 90 90 90 90 90 91 92 93 95 95 93 91 92 94 94 92 91 91 90 89 88 87 85 82 81 83 84 83 83 84 84 85 88 87 85 86 88 89 91 91 90 90 90 90 89 89 90 91 92 93 95
131 130 130 130 130 129 129 127 125 122 122 122 121 119 118 117 116 113 112 112 110 109 108 106 104 104 106 107 106 104 102 100 98 96 94 94 92 91 91 91 91 91 91 92 94 95 95 95 94 95 96 96 93 93 93 93 92 93 91 87 84 84 86 87 86 86 88 89 90 92 90 88 89 91 93 94 94 94 94 94 93 93 92 93 94 96 97 98
131 130 129 129 130 130 130 130 129 126 124 123 122 121 119 118 118 118 117 116 113 111 110 108 107 108 109 108 107 105 104 103 101 99 98 98 97 96 96 95 94 94 93 93 94 94 95 95 95 96 98 98 96 96 96 97 99 99 94 88 88 90 90 91 91 91 93 94 95 95 93 92 94 95 95 97 98 98 99 98 98 98 98 99 99 99 100 100
Wind_Direction
229 229 229 229 229 229 230 230 232 232 234 235 236 237 239 240 241 242 243 244 245 246 247 248 249 250 251 252 253 254 256 257 257 259 259 260 261 262 264 265 266 266 267 268 269 270 270 271 272 273 273 273 273 274 274 274 274 275 276 277 278 280 281 282 283 283 281 280 278 276 273 271 272 276 277 276 274 273 271 272 277 280 278 275 272 272 273 277
232 231 231 231 231 231 231 231 232 233 234 235 236 237 239 240 241 242 243 244 246 246 247 248 249 250 252 253 254 255 256 257 258 259 260 261 262 263 263 264 265 266 266 267 267 269 269 270 271 272 272 273 273 273 273 274 275 275 277 277 277 279 279 280 281 281 281 279 279 278 277 274 273 276 280 280 278 274 272 272 273 275 277 278 277 273 270 271
236 235 233 232 232 233 233 233 233 233 234 235 236 238 239 240 241 242 243 244 245 247 248 249 250 251 252 253 254 255 256 257 258 259 260 261 262 262 262 262 263 264 265 266 266 267 268 268 269 270 270 271 272 272 272 273 274 276 276 276 277 277 277 278 279 279 279 279 279 279 278 277 276 276 279 282 282 281 278 278 276 273 275 279 279 278 274 271
237 237 236 235 234 234 234 234 235 235 235 235 236 238 239 241 242 243 244 245 246 247 248 249 250 251 252 253 254 255 255 257 257 258 259 260 260 261 261 262 262 262 263 264 265 265 266 267 268 268 269 270 270 271 272 272 273 274 275 276 277 277 277 278 278 278 278 278 277 277 277 277 277 278 278 279 281 283 283 284 283 277 275 277 277 277 276 274
237 237 238 238 238 237 236 236 236 236 236 236 237 238 240 241 242 243 244 245 247 248 248 249 250 252 252 253 254 254 255 257 257 257 259 259 260 260 261 261 261 261 262 262 263 264 265 265 266 267 268 269 270 270 271 272 272 273 274 275 276 276 277 277 277 277 277 277 276 275 275 276 277 278 278 278 280 283 284 286 286 283 280 277 275 275 275 274
237 237 238 239 239 239 238 238 237 237 237 237 237 238 240 241 243 244 245 245 246 248 249 250 250 252 253 253 254 254 255 256 257 257 258 259 259 260 260 261 261 261 261 262 262 263 264 264 265 266 268 269 269 270 270 271 271 272 272 272 273 274 275 276 276 276 275 276 275 275 275 277 278 278 278 278 279 282 284 286 287 288 286 282 279 276 274 273
239 239 238 239 239 240 240 240 239 239 239 238 238 238 239 241 242 244 245 246 247 247 248 249 250 251 252 252 253 253 254 255 256 256 257 258 259 259 260 260 260 261 261 262 263 263 264 264 265 266 267 268 269 270 270 270 270 270 271 271 271 273 274 276 276 275 274 274 273 274 276 278 279 279 279 279 279 279 280 283 285 286 288 286 284 282 278 275
240 240 240 240 240 241 241 241 241 241 241 240 240 240 240 240 241 242 244 246 247 248 248 248 249 250 251 251 252 252 252 254 256 256 256 257 257 258 259 260 260 261 261 262 263 263 264 265 266 267 268 269 269 270 270 270 270 270 271 271 272 273 274 275 275 275 273 272 272 273 276 278 279 280 280 280 279 278 277 279 281 282 283 284 285 284 282 279
242 241 241 242 242 242 242 243 243 243 243 243 242 242 242 241 241 241 242 244 246 248 249 249 249 249 250 250 251 252 251 252 255 256 255 256 257 257 258 259 260 260 261 262 263 264 266 267 267 268 269 270 270 270 270 270 270 271 271 271 272 273 274 275 274 274 273 272 273 275 277 278 278 279 278 278 279 278 278 278 278 278 278 280 281 282 281 280
244 244 244 244 244 244 244 244 244 245 245 244 244 244 244 244 243 243 242 243 244 246 247 248 249 249 249 249 250 251 250 251 253 254 254 255 255 257 258 258 259 260 261 263 264 265 266 268 269 269 270 270 270 270 271 271 271 271 270 270 270 272 272 272 272 271 271 272 274 275 275 276 276 276 276 276 277 278 279 278 276 276 277 278 278 278 279 279
244 245 246 246 246 246 246 246 245 245 246 246 245 245 245 246 246 245 245 245 244 245 246 248 249 249 250 250 250 251 250 250 252 253 254 254 254 256 257 258 259 260 261 263 264 265 266 268 268 269 270 269 270 270 271 271 271 271 270 270 270 270 271 270 270 269 269 271 275 276 275 275 273 272 273 273 275 276 278 277 277 278 278 279 279 279 280 280
242 243 245 246 247 248 248 248 247 247 246 246 246 246 246 247 247 247 247 247 247 246 247 247 249 250 250 251 251 251 250 250 251 252 253 253 254 255 256 258 260 261 262 263 264 265 266 267 268 268 269 269 269 270 270 270 270 270 270 270 269 269 269 268 266 267 270 273 274 274 275 275 272 269 269 270 272 274 274 275 275 277 278 279 281 282 283 283
241 242 243 244 246 247 249 250 250 249 248 247 247 247 248 248 248 249 249 249 249 248 248 248 249 250 250 251 252 252 251 250 250 251 252 253 254 256 257 259 260 262 263 263 264 265 265 266 267 267 268 268 269 269 270 270 269 269 269 270 269 268 267 266 265 268 271 273 274 274 274 274 272 268 268 269 270 271 272 273 275 276 277 278 279 281 282 283
239 240 242 243 244 245 247 249 250 251 250 249 248 248 248 249 249 249 250 250 250 250 250 250 250 250 251 251 252 252 252 251 251 251 252 254 256 257 259 260 261 262 262 263 264 265 265 266 266 267 267 268 269 269 269 269 269 269 269 270 270 267 264 266 267 269 269 270 272 274 273 273 272 269 268 270 270 270 271 273 275 276 276 276 277 278 279 280
238 239 240 241 243 244 245 247 249 250 251 251 250 249 249 249 249 250 250 251 251 251 252 252 252 252 252 252 253 254 253 253 253 254 255 256 258 259 260 260 261 261 262 262 263 264 264 265 265 266 267 267 268 269 268 269 270 270 270 270 268 266 265 268 270 269 269 270 270 272 272 271 272 271 270 270 270 270 271 273 274 275 275 275 276 276 277 277
237 239 239 240 241 242 243 244 245 247 249 250 250 250 250 249 250 250 251 251 252 252 252 253 253 253 253 254 255 255 255 256 257 258 258 258 259 259 260 260 261 261 262 262 262 263 263 264 265 265 267 267 267 267 267 268 270 271 270 268 267 268 268 268 270 269 269 271 271 271 271 269 270 271 270 269 270 271 272 273 273 273 274 274 274 274 275 276
236 238 238 239 239 240 241 242 243 244 245 247 248 249 249 250 250 250 251 251 252 252 252 252 253 253 253 254 255 256 257 257 258 258 258 258 258 259 259 260 260 260 261 261 261 262 262 263 264 265 267 267 266 265 266 269 270 269 269 267 268 270 269 267 267 268 268 270 272 272 270 269 270 271 270 270 270 272 273 273 272 273 273 273 273 272 273 274
236 237 238 238 238 239 240 241 242 243 243 244 246 247 248 248 249 250 251 251 251 252 252 252 252 252 252 253 255 257 257 257 257 257 257 257 257 258 259 260 260 260 260 260 260 261 261 262 263 265 266 265 264 265 267 268 268 267 268 269 270 270 270 267 265 267 268 268 269 270 270 269 270 271 271 271 272 272 272 273 273 273 273 273 272 273 273 273
235 236 237 237 238 240 241 241 242 243 243 244 244 245 246 247 247 248 249 250 251 251 251 251 251 252 252 253 255 256 257 257 257 257 257 257 257 258 258 259 259 259 259 259 259 259 260 260 263 264 263 263 264 266 267 267 266 266 267 270 271 270 270 268 265 266 267 268 268 267 268 268 267 269 272 272 273 273 272 272 273 273 273 273 273 273 272 272
234 235 236 237 237 239 240 241 241 243 243 243 244 245 246 246 247 247 247 248 249 249 250 250 252 253 253 253 255 256 257 257 258 258 258 258 257 257 257 258 259 259 259 259 259 260 259 260 262 261 260 262 265 266 266 265 266 267 267 268 270 271 270 269 267 266 266 267 269 268 267 268 267 268 271 272 272 273 273 272 272 273 273 273 273 273 272 272
233 234 235 236 237 238 239 240 241 242 243 243 244 245 245 245 246 246 247 247 247 248 250 251 252 254 254 253 254 255 256 258 259 259 259 259 258 258 258 258 258 259 259 259 259 260 260 260 261 261 261 263 265 265 265 266 267 268 267 267 269 270 270 270 269 269 268 266 268 270 270 271 270 270 271 272 272 272 272 272 272 273 273 274 274 274 273 273
233 233 234 234 236 237 239 239 240 242 243 243 243 244 244 245 245 246 246 247 247 248 250 250 252 253 254 254 254 256 257 258 259 259 260 260 260 260 259 259 259 259 259 260 260 260 261 261 261 262 263 264 264 264 265 266 266 267 267 268 268 269 269 270 271 271 270 266 267 270 271 273 273 272 272 272 273 272 271 271 272 273 274 274 274 274 273 273
234 233 233 233 234 236 238 239 239 241 242 243 243 243 243 244 245 246 246 246 246 248 249 249 251 252 253 255 255 255 256 257 259 260 261 261 261 260 260 260 260 259 260 261 260 260 260 261 262 263 264 264 263 264 265 265 265 266 267 268 269 269 269 271 272 272 271 269 269 270 271 273 274 273 273 273 273 273 273 272 273 273 274 275 274 274 273 273
235 234 234 233 233 234 236 238 239 240 242 243 243 243 243 244 245 247 247 246 245 247 248 248 249 250 252 253 254 254 255 256 257 259 260 260 260 259 259 259 259 259 260 260 259 259 259 261 263 264 264 264 264 265 266 266 266 267 268 269 269 269 270 271 271 271 271 272 271 269 269 273 275 273 273 274 273 272 273 273 274 275 275 275 274 273 273 273
236 236 236 235 235 235 236 237 238 241 242 243 243 243 243 244 246 247 248 247 245 245 248 249 248 248 250 251 252 254 254 254 255 257 258 258 258 258 258 258 258 258 258 259 258 259 260 261 263 263 264 265 266 266 267 267 266 267 269 270 270 269 270 271 270 269 270 272 272 271 268 270 275 275 273 273 273 273 273 274 274 274 274 274 273 273 272 272
237 237 237 237 237 236 237 236 238 240 242 243 244 244 244 244 245 247 248 248 245 243 247 250 249 248 249 251 252 253 253 254 256 257 257 258 257 257 257 257 258 258 258 259 259 260 261 261 261 263 264 265 266 266 267 267 265 267 269 270 269 270 270 271 271 270 270 270 271 273 273 270 272 275 274 272 272 274 274 274 274 274 274 273 272 271 271 271
237 237 237 237 237 237 236 236 236 238 241 243 245 244 244 245 245 247 248 248 245 241 244 248 250 249 249 250 251 252 252 254 256 256 256 257 257 257 257 258 259 259 259 260 260 261 261 260 261 262 263 264 265 265 265 265 265 266 268 268 270 271 271 270 270 270 271 270 271 275 276 272 269 272 273 273 273 273 273 273 274 274 273 272 272 271 271 271
238 238 238 238 238 237 236 235 235 237 239 242 245 245 245 245 246 246 248 248 245 241 242 245 249 250 248 248 250 253 253 252 254 256 257 256 257 257 258 258 259 259 260 261 261 261 260 261 261 261 262 263 264 264 264 265 266 265 266 268 270 270 270 270 270 270 271 272 273 275 274 272 269 269 271 274 274 273 272 273 273 272 272 272 272 271 271 272
239 239 238 238 238 238 238 237 236 237 238 240 243 245 246 246 246 247 247 247 246 243 242 243 247 250 250 249 250 252 253 252 252 255 256 257 258 258 259 259 259 260 261 261 261 260 260 261 262 262 264 264 264 265 266 266 267 266 265 266 268 269 269 270 270 271 272 273 275 274 273 272 269 269 272 274 273 272 272 273 272 271 270 272 272 271 271 272
240 240 240 239 239 239 239 238 238 239 239 239 241 243 244 245 245 246 247 246 246 244 242 242 244 247 249 250 250 250 251 251 251 252 254 256 258 258 259 260 260 260 260 260 261 261 260 260 262 264 266 266 266 267 268 268 268 267 266 266 266 267 268 269 271 272 272 273 274 272 271 270 269 269 272 272 272 271 271 272 271 271 271 272 272 271 271 272
240 240 241 240 240 241 241 240 239 240 241 241 241 241 242 244 245 246 246 246 246 244 241 241 243 245 249 250 251 250 250 251 252 252 254 256 257 258 260 260 260 259 259 260 261 261 261 261 263 265 266 267 268 268 268 269 269 268 267 266 267 267 268 270 271 272 272 271 271 270 271 271 271 271 269 269 272 272 271 271 271 271 272 272 272 271 271 271
240 241 241 241 241 241 241 240 240 241 242 243 243 243 243 243 244 246 247 248 247 244 242 243 243 245 247 249 251 252 253 253 253 253 254 255 256 257 258 259 261 261 261 261 261 261 262 262 263 265 267 269 268 268 269 269 269 268 268 268 269 270 270 271 272 272 272 270 270 270 271 272 274 273 268 266 268 270 271 272 272 272 271 272 272 272 271 271
240 240 241 241 241 242 241 241 240 241 243 244 245 246 245 244 245 246 248 248 248 246 245 244 243 243 246 248 250 253 254 254 254 254 254 255 256 257 258 259 261 263 263 261 261 262 262 263 264 265 266 267 268 268 268 268 269 269 270 271 272 272 272 271 271 270 270 271 270 270 271 274 275 273 269 266 265 268 271 273 272 272 271 272 272 272 271 271
240 240 240 241 241 241 241 241 240 241 244 245 245 246 246 246 246 247 249 249 249 248 246 245 243 243 244 246 248 250 252 254 255 256 256 256 257 258 258 259 260 262 263 263 263 263 263 262 263 264 264 264 266 267 267 268 269 269 271 272 272 274 273 271 269 269 270 270 271 271 272 273 272 270 269 268 267 268 270 271 272 271 271 272 272 272 272 272
239 239 239 239 240 241 241 241 242 243 245 246 246 246 246 247 248 248 248 250 250 248 246 245 244 243 243 245 246 248 250 252 253 255 256 256 257 257 258 259 261 262 264 265 263 263 262 261 260 262 263 264 265 267 267 268 268 269 271 271 272 272 272 270 270 270 271 270 271 272 273 271 269 268 269 271 270 269 269 270 271 272 272 272 272 272 271 271
237 238 238 238 239 241 242 243 243 244 245 246 248 248 247 247 249 248 247 248 249 249 247 246 245 244 243 244 245 247 249 250 250 252 254 255 256 258 259 261 262 262 263 264 262 260 261 260 260 261 262 264 266 267 267 267 268 270 271 272 271 269 269 271 272 272 272 272 272 272 272 271 269 269 270 270 270 270 270 271 272 273 273 272 271 270 270 270
237 238 238 238 239 241 242 243 244 244 245 246 248 249 249 248 248 248 248 248 249 250 250 248 246 246 246 245 245 246 248 249 250 251 253 254 256 258 260 261 262 262 262 262 261 259 260 260 260 261 262 264 265 266 266 267 269 270 270 270 269 268 269 271 272 273 274 274 273 272 271 271 271 271 270 269 269 270 271 272 273 273 273 272 271 270 270 270
236 237 237 238 239 240 241 242 243 244 245 246 247 249 250 250 249 250 250 249 249 251 252 251 249 248 247 247 246 246 247 248 249 250 252 253 255 256 258 260 260 261 261 262 262 261 262 261 260 261 263 264 265 265 266 268 269 268 267 267 268 269 271 272 273 274 274 274 273 272 271 272 272 272 271 270 270 271 271 272 273 273 273 273 272 271 272 272
235 236 236 237 238 240 240 241 242 243 245 246 247 248 250 251 251 251 251 251 251 251 252 254 253 250 248 247 247 246 247 248 248 249 251 253 254 255 256 258 259 260 261 262 262 262 262 262 261 261 262 263 263 265 266 267 266 266 266 268 269 271 272 272 273 274 273 274 274 273 272 272 273 273 272 273 274 274 274 274 274 274 274 274 275 275 275 274
235 235 234 236 238 239 240 241 241 242 244 246 247 248 248 250 250 251 252 253 253 252 253 255 255 252 249 248 248 246 247 247 247 249 250 250 252 253 255 257 258 259 260 260 262 262 262 263 262 260 260 261 262 264 265 265 265 266 267 268 269 269 270 270 272 273 274 274 274 273 272 272 274 275 275 275 275 275 274 274 274 274 274 276 277 277 277 276
235 235 234 236 239 240 240 241 241 242 243 245 246 247 248 249 250 251 252 253 254 255 255 256 256 255 252 251 250 248 247 247 246 247 249 249 250 251 252 254 256 257 258 260 261 263 262 262 262 260 260 262 263 263 263 264 265 266 266 266 267 268 269 270 271 271 271 271 271 272 273 275 275 275 274 274 274 273 273 272 272 273 274 275 276 276 276 276
235 235 235 237 240 241 241 241 241 241 243 244 246 247 247 248 249 250 250 251 252 253 254 255 256 256 255 253 252 250 248 248 247 247 248 249 250 250 251 252 254 256 258 260 261 263 263 263 263 263 262 262 262 261 262 263 264 265 267 268 268 267 267 267 266 266 268 270 272 273 274 275 274 272 271 270 270 271 271 271 272 273 274 274 274 275 275 276
237 237 236 237 239 240 241 241 241 241 242 243 244 245 246 246 248 248 249 250 251 252 253 254 255 256 256 255 254 252 251 250 249 248 248 248 248 250 251 252 254 256 258 259 261 262 263 263 263 263 262 261 261 261 262 264 266 267 268 266 264 264 264 265 266 267 268 271 273 273 273 273 271 270 269 268 268 268 269 271 272 273 274 274 275 275 276 277
237 238 237 235 236 238 240 241 241 241 242 243 244 245 246 247 248 249 249 250 252 253 254 255 256 256 256 256 255 255 253 251 250 249 249 249 248 249 251 252 254 255 257 258 260 261 262 263 263 263 262 262 263 264 264 265 265 264 263 262 263 265 266 267 268 268 269 271 272 273 273 272 270 270 270 269 269 268 269 269 270 271 272 273 275 276 277 278
235 236 237 235 235 237 239 241 242 242 242 243 244 245 246 247 248 249 250 251 252 254 255 256 256 256 255 255 255 255 255 254 252 251 250 250 250 250 251 253 254 255 257 258 259 261 262 262 263 264 264 264 264 264 264 263 262 262 263 264 266 267 268 269 269 269 271 273 272 273 273 272 271 270 270 271 271 270 269 269 269 269 270 271 273 274 275 276
234 234 235 236 235 236 238 240 241 242 242 243 244 245 246 247 248 249 250 251 252 254 256 256 256 255 254 255 255 256 257 257 255 253 252 252 251 251 252 253 254 255 256 258 259 261 261 262 264 266 267 267 265 264 263 263 263 264 265 266 266 267 268 269 270 272 274 273 271 272 273 272 272 271 271 271 271 271 271 270 270 270 271 272 272 273 274 275
234 233 234 235 236 236 237 239 240 241 242 243 244 245 246 247 248 249 250 252 253 254 255 255 254 255 255 256 257 257 257 257 256 254 254 253 253 252 252 253 254 255 256 258 259 260 262 263 264 266 267 267 267 265 264 264 264 265 265 265 267 269 269 270 271 273 273 271 271 273 273 273 273 272 271 271 271 271 271 271 271 272 273 273 274 275 276 276
234 234 234 234 235 236 237 239 240 242 242 243 244 245 246 247 248 249 250 252 253 254 254 254 254 255 256 256 257 257 257 257 257 256 255 255 255 255 255 255 255 255 256 257 259 260 261 262 264 265 266 267 267 266 265 264 264 265 266 266 267 268 269 271 272 273 272 273 274 274 273 274 273 272 272 272 272 272 272 272 272 273 273 274 275 276 277 277
234 234 234 234 235 236 236 237 239 241 242 243 244 244 245 246 247 249 251 251 251 252 254 255 255 256 256 256 256 256 256 257 257 257 256 256 256 256 256 257 257 257 257 258 259 259 260 260 261 263 265 266 266 267 266 265 264 264 265 266 267 268 270 271 272 273 274 275 275 274 272 272 272 273 274 274 273 273 274 274 274 274 274 275 275 275 276 276
234 234 235 235 235 235 236 237 238 239 240 241 242 243 245 246 246 248 249 251 251 251 252 254 255 255 256 256 256 256 257 257 257 257 256 256 256 256 256 257 258 258 258 258 259 260 260 260 260 262 264 265 266 267 268 267 266 265 264 264 266 267 269 270 271 273 274 274 274 273 272 272 273 274 274 274 275 276 276 275 275 275 275 275 275 274 275 275
235 235 235 235 235 235 236 237 237 238 239 240 241 242 244 245 246 247 248 250 251 251 251 252 253 254 255 256 257 258 258 257 257 256 256 256 256 256 257 258 258 258 258 259 259 260 261 261 261 262 263 264 265 266 267 267 268 266 265 265 267 267 268 270 271 271 273 273 273 273 273 274 274 274 274 275 276 277 277 277 276 276 275 274 274 274 274 275
235 235 235 236 236 236 236 237 237 237 238 239 240 241 241 243 245 246 247 248 250 251 251 251 252 253 254 255 256 257 258 258 258 257 257 257 257 257 258 258 258 258 259 259 259 260 261 262 262 262 263 263 264 264 266 267 267 266 266 267 268 267 268 270 271 272 273 273 273 273 274 274 274 274 275 275 275 276 276 276 275 274 274 274 275 275 276 276
Height
10758 10760 10762 10764 10765 10767 10768 10770 10771 10772 10774 10775 10776 10777 10778 10779 10780 10781 10782 10783 10784 10785 10786 10787 10788 10789 10790 10791 10791 10792 10793 10793 10794 10794 10795 10795 10796 10796 10797 10797 10798 10798 10798 10798 10799 10799 10799 10799 10799 10799 10799 10799 10799 10799 10799 10799 10799 10799 10799 10799 10799 10799 10799 10799 10799 10799 10799 10799 10798 10798 10798 10798 10797 10796 10795 10795 10796 10796 10795 10795 10796 10795 10795 10796 10796 10796 10795 10795
10754 10756 10758 10759 10761 10763 10764 10766 10767 10768 10770 10771 10772 10773 10774 10775 10776 10778 10779 10780 10781 10782 10783 10784 10785 10786 10787 10788 10788 10789 10789 10790 10791 10791 10792 10792 10793 10793 10794 10794 10795 10795 10795 10796 10796 10796 10796 10796 10796 10796 10796 10797 10797 10797 10797 10797 10797 10797 10797 10797 10797 10797 10797 10797 10797 10797 10797 10797 10797 10796 10795 10795 10795 10794 10793 10793 10793 10794 10793 10793 10794 10794 10793 10793 10794 10794 10794 10794
10749 10751 10753 10755 10757 10758 10760 10762 10763 10765 10766 10767 10768 10769 10771 10772 10773 10774 10775 10776 10777 10778 10780 10780 10781 10783 10784 10784 10785 10786 10786 10787 10788 10788 10788 10789 10789 10790 10790 10791 10792 10792 10792 10793 10793 10793 10793 10794 10794 10794 10794 10794 10795 10795 10795 10795 10795 10795 10795 10795 10795 10795 10795 10795 10795 10795 10795 10795 10795 10794 10793 10793 10793 10793 10792 10791 10791 10791 10791 10791 10792 10792 10791 10791 10791 10792 10792 10792
10744 10746 10748 10750 10752 10754 10756 10757 10759 10760 10762 10763 10764 10766 10767 10768 10769 10770 10772 10773 10774 10775 10776 10777 10778 10779 10780 10781 10782 10783 10783 10784 10784 10785 10785 10786 10786 10787 10787 10788 10789 10789 10789 10790 10790 10790 10790 10791 10791 10791 10791 10792 10792 10792 10792 10793 10793 10793 10793 10793 10793 10793 10793 10793 10793 10793 10793 10793 10793 10793 10792 10791 10790 10790 10790 10789 10788 10789 10789 10788 10789 10790 10790 10790 10789 10789 10789 10790
10739 10741 10743 10745 10747 10749 10751 10753 10755 10756 10758 10759 10761 10762 10763 10764 10765 10767 10768 10769 10770 10771 10772 10773 10775 10776 10777 10778 10779 10780 10780 10781 10781 10781 10782 10782 10783 10783 10784 10785 10785 10786 10786 10786 10787 10787 10787 10788 10788 10788 10789 10789 10789 10790 10790 10790 10790 10791 10791 10791 10791 10791 10791 10791 10791 10791 10791 10791 10791 10790 10790 10789 10788 10788 10788 10787 10787 10787 10787 10786 10786 10786 10787 10787 10787 10787 10787 10787
10734 10736 10738 10740 10742 10744 10746 10748 10750 10752 10753 10755 10756 10758 10759 10761 10762 10763 10764 10765 10767 10768 10769 10770 10771 10772 10773 10774 10775 10776 10777 10777 10777 10778 10779 10779 10779 10780 10781 10781 10782 10782 10783 10783 10784 10784 10785 10785 10786 10786 10786 10786 10786 10787 10787 10787 10788 10788 10788 10788 10788 10788 10788 10788 10789 10789 10788 10788 10788 10788 10787 10787 10787 10786 10786 10785 10785 10785 10785 10784 10784 10783 10784 10785 10785 10785 10785 10785
10730 10732 10733 10735 10737 10739 10741 10743 10745 10747 10748 10750 10752 10754 10755 10756 10758 10759 10760 10761 10763 10764 10765 10766 10767 10768 10769 10770 10771 10773 10774 10774 10773 10775 10776 10776 10776 10776 10777 10778 10778 10779 10779 10780 10780 10781 10782 10782 10783 10783 10783 10783 10784 10784 10784 10784 10785 10785 10785 10786 10786 10786 10786 10786 10786 10786 10785 10785 10785 10785 10785 10785 10784 10784 10783 10783 10782 10783 10783 10783 10782 10781 10781 10781 10782 10782 10782 10782
10725 10727 10729 10731 10732 10734 10736 10738 10740 10742 10744 10746 10747 10749 10750 10752 10753 10755 10756 10758 10759 10759 10760 10761 10762 10764 10765 10766 10767 10769 10770 10770 10770 10771 10772 10772 10773 10773 10774 10774 10774 10775 10776 10777 10777 10778 10778 10779 10780 10780 10780 10780 10781 10781 10781 10781 10782 10782 10783 10783 10783 10783 10783 10783 10783 10782 10782 10782 10782 10783 10783 10783 10782 10781 10781 10780 10780 10780 10780 10781 10780 10780 10779 10779 10779 10779 10779 10779
10721 10723 10724 10726 10728 10730 10732 10733 10735 10737 10739 10741 10743 10744 10746 10747 10749 10750 10752 10753 10754 10755 10756 10757 10758 10759 10760 10761 10763 10764 10766 10767 10766 10767 10768 10769 10769 10769 10770 10770 10771 10771 10772 10773 10774 10775 10775 10776 10776 10777 10777 10777 10777 10777 10778 10778 10778 10779 10779 10780 10780 10780 10780 10780 10780 10779 10778 10778 10779 10780 10781 10780 10780 10779 10778 10777 10777 10776 10777 10778 10778 10777 10777 10777 10777 10777 10776 10776
10716 10718 10720 10722 10723 10725 10727 10729 10730 10732 10734 10736 10738 10739 10741 10742 10744 10746 10747 10749 10750 10751 10752 10753 10753 10755 10756 10757 10758 10759 10762 10764 10762 10762 10764 10765 10765 10765 10766 10766 10767 10768 10769 10770 10771 10771 10772 10772 10773 10773 10773 10773 10773 10774 10774 10774 10775 10775 10776 10776 10777 10777 10777 10777 10776 10775 10775 10775 10776 10778 10778 10778 10777 10776 10775 10774 10774 10773 10774 10774 10774 10774 10774 10774 10774 10774 10773 10773
10711 10713 10715 10717 10718 10720 10722 10724 10726 10727 10729 10731 10732 10734 10736 10737 10739 10741 10743 10744 10745 10746 10747 10748 10749 10750 10751 10753 10754 10754 10758 10760 10758 10758 10759 10760 10762 10762 10762 10762 10763 10765 10766 10767 10767 10768 10768 10768 10769 10769 10769 10769 10770 10770 10770 10771 10771 10772 10772 10773 10773 10774 10773 10773 10772 10771 10771 10772 10773 10774 10775 10774 10774 10773 10772 10772 10771 10771 10771 10770 10770 10770 10771 10771 10771 10770 10770 10769
10705 10707 10709 10711 10713 10715 10717 10719 10721 10722 10724 10725 10727 10729 10731 10732 10734 10736 10737 10739 10740 10742 10743 10744 10745 10746 10748 10749 10749 10750 10753 10755 10754 10754 10755 10756 10757 10758 10759 10759 10760 10761 10762 10763 10764 10764 10765 10765 10765 10765 10765 10765 10766 10767 10767 10767 10768 10768 10768 10769 10770 10770 10770 10769 10768 10768 10768 10769 10770 10771 10771 10771 10771 10770 10769 10769 10768 10768 10768 10767 10767 10767 10767 10767 10767 10766 10766 10765
10699 10702 10704 10706 10708 10710 10711 10714 10715 10717 10719 10720 10722 10724 10725 10727 10729 10730 10732 10734 10735 10737 10738 10740 10741 10742 10744 10745 10744 10746 10749 10750 10750 10751 10751 10752 10754 10754 10755 10756 10757 10758 10759 10760 10760 10760 10761 10761 10761 10761 10761 10761 10762 10763 10763 10763 10764 10765 10765 10765 10765 10766 10766 10764 10764 10765 10765 10765 10766 10767 10768 10767 10766 10766 10766 10765 10765 10765 10765 10764 10764 10764 10764 10764 10764 10763 10763 10762
10692 10695 10698 10700 10702 10704 10706 10708 10710 10712 10714 10716 10717 10719 10721 10722 10724 10725 10726 10728 10730 10732 10734 10735 10737 10738 10740 10741 10740 10741 10744 10745 10746 10747 10748 10749 10750 10751 10751 10752 10753 10754 10755 10756 10756 10757 10757 10757 10757 10757 10757 10758 10758 10758 10760 10759 10760 10761 10761 10762 10761 10761 10762 10760 10761 10763 10762 10762 10763 10763 10764 10764 10762 10763 10763 10762 10762 10762 10762 10762 10761 10761 10761 10761 10761 10760 10760 10759
10686 10688 10691 10693 10695 10698 10700 10702 10705 10707 10709 10711 10712 10714 10716 10717 10718 10720 10721 10723 10725 10727 10729 10730 10732 10734 10737 10737 10735 10736 10739 10740 10742 10744 10746 10747 10746 10747 10747 10748 10749 10750 10751 10752 10752 10753 10753 10753 10753 10753 10753 10753 10754 10754 10756 10756 10756 10757 10758 10758 10755 10755 10758 10758 10758 10759 10758 10759 10760 10759 10760 10761 10759 10759 10759 10759 10758 10759 10759 10759 10759 10758 10758 10758 10758 10757 10757 10756
10679 10681 10684 10687 10689 10691 10693 10696 10699 10701 10703 10705 10706 10708 10710 10711 10713 10715 10716 10718 10720 10722 10723 10726 10727 10729 10733 10733 10731 10732 10734 10736 10739 10741 10743 10742 10742 10743 10743 10744 10745 10746 10747 10748 10748 10749 10749 10749 10749 10750 10749 10749 10749 10750 10752 10753 10753 10753 10753 10753 10750 10751 10755 10756 10754 10754 10755 10755 10756 10756 10756 10757 10756 10755 10756 10755 10755 10756 10756 10756 10756 10755 10755 10755 10755 10754 10754 10753
10672 10674 10677 10679 10681 10684 10687 10690 10692 10695 10698 10699 10701 10702 10704 10706 10708 10709 10711 10713 10715 10716 10718 10721 10721 10723 10728 10729 10727 10727 10729 10732 10735 10736 10737 10737 10738 10738 10738 10740 10741 10742 10743 10743 10744 10744 10744 10745 10746 10746 10746 10744 10744 10745 10749 10750 10749 10749 10748 10747 10747 10748 10750 10752 10752 10750 10751 10752 10752 10752 10752 10752 10753 10752 10751 10751 10752 10753 10753 10753 10752 10752 10752 10752 10751 10751 10751 10750
10665 10667 10670 10672 10675 10677 10680 10683 10686 10689 10691 10692 10694 10696 10698 10700 10701 10704 10706 10707 10709 10711 10713 10715 10715 10717 10723 10724 10723 10722 10723 10727 10729 10730 10732 10732 10733 10733 10734 10736 10736 10737 10738 10738 10739 10739 10740 10741 10742 10743 10741 10738 10739 10742 10746 10746 10745 10745 10744 10743 10744 10744 10744 10747 10749 10747 10747 10749 10749 10749 10748 10748 10749 10748 10747 10747 10748 10749 10749 10749 10748 10748 10748 10748 10747 10747 10747 10747
10657 10660 10663 10665 10668 10670 10673 10677 10680 10682 10683 10685 10688 10690 10692 10693 10695 10698 10699 10701 10704 10705 10706 10709 10709 10712 10719 10720 10718 10718 10718 10721 10723 10724 10726 10727 10728 10729 10730 10730 10731 10731 10732 10733 10734 10734 10735 10737 10739 10739 10734 10732 10736 10740 10741 10741 10740 10741 10741 10740 10740 10740 10739 10741 10744 10744 10744 10745 10745 10744 10744 10744 10745 10745 10743 10744 10745 10745 10745 10745 10745 10745 10744 10744 10743 10743 10743 10743
10650 10652 10655 10658 10661 10664 10666 10670 10674 10675 10676 10679 10682 10683 10685 10687 10689 10690 10693 10695 10697 10697 10700 10704 10705 10708 10714 10715 10713 10712 10713 10714 10717 10719 10720 10721 10723 10724 10725 10725 10725 10726 10727 10727 10728 10729 10730 10734 10735 10730 10727 10730 10734 10735 10736 10736 10735 10736 10737 10736 10736 10735 10734 10735 10740 10741 10740 10742 10740 10739 10740 10739 10740 10742 10740 10739 10741 10741 10740 10741 10741 10740 10740 10739 10739 10739 10739 10738
10641 10644 10648 10651 10654 10657 10659 10663 10667 10668 10669 10672 10675 10676 10678 10679 10680 10683 10686 10687 10689 10691 10695 10699 10701 10704 10708 10709 10708 10707 10708 10709 10711 10713 10714 10715 10716 10718 10720 10720 10720 10721 10721 10721 10723 10724 10726 10731 10728 10721 10723 10728 10730 10730 10730 10731 10731 10732 10732 10732 10732 10731 10729 10730 10735 10736 10736 10738 10736 10734 10736 10735 10736 10738 10736 10735 10736 10736 10736 10736 10736 10736 10735 10735 10735 10734 10734 10734
10633 10637 10640 10642 10646 10649 10652 10656 10659 10661 10662 10665 10668 10668 10669 10671 10672 10676 10678 10680 10684 10686 10689 10694 10697 10699 10701 10702 10703 10702 10703 10705 10705 10706 10708 10708 10710 10713 10713 10713 10714 10715 10715 10716 10718 10718 10721 10725 10721 10716 10720 10724 10724 10724 10725 10726 10727 10726 10727 10728 10728 10726 10724 10726 10731 10731 10730 10732 10733 10731 10732 10731 10731 10732 10731 10731 10732 10731 10732 10732 10731 10732 10731 10731 10730 10730 10729 10729
10625 10628 10630 10634 10638 10640 10644 10647 10652 10655 10655 10657 10659 10659 10661 10663 10666 10668 10670 10674 10679 10680 10684 10689 10691 10694 10696 10697 10698 10696 10697 10699 10699 10701 10701 10702 10704 10705 10707 10707 10707 10709 10711 10710 10711 10713 10717 10719 10714 10713 10715 10717 10718 10720 10720 10721 10721 10721 10722 10723 10723 10721 10720 10723 10726 10726 10724 10727 10729 10726 10728 10728 10726 10726 10726 10725 10727 10726 10726 10726 10726 10726 10726 10726 10725 10724 10724 10724
10617 10620 10622 10627 10629 10633 10637 10639 10646 10650 10648 10649 10650 10651 10654 10657 10658 10660 10662 10666 10673 10677 10679 10682 10686 10689 10691 10692 10690 10690 10693 10694 10694 10696 10694 10694 10696 10697 10700 10699 10699 10704 10705 10702 10703 10707 10712 10714 10710 10707 10708 10710 10713 10715 10714 10715 10716 10716 10717 10718 10717 10716 10716 10718 10720 10720 10719 10721 10723 10721 10724 10726 10721 10721 10722 10720 10720 10720 10720 10721 10721 10721 10721 10720 10720 10719 10719 10718
10610 10612 10616 10620 10622 10626 10628 10634 10643 10643 10640 10642 10641 10643 10647 10650 10651 10652 10653 10657 10667 10675 10675 10676 10681 10684 10685 10685 10686 10686 10686 10687 10690 10690 10687 10687 10689 10689 10691 10692 10693 10698 10698 10694 10697 10702 10708 10710 10704 10701 10702 10704 10707 10710 10709 10708 10710 10712 10714 10712 10710 10711 10712 10712 10714 10714 10715 10717 10716 10714 10720 10723 10717 10715 10716 10714 10714 10714 10714 10715 10715 10714 10714 10714 10714 10713 10713 10713
10602 10605 10609 10613 10615 10618 10622 10631 10636 10632 10632 10633 10631 10635 10640 10643 10643 10643 10645 10646 10660 10674 10672 10670 10673 10677 10680 10680 10680 10678 10677 10684 10686 10682 10681 10681 10681 10681 10684 10686 10687 10690 10690 10687 10691 10699 10704 10702 10697 10695 10697 10699 10702 10704 10702 10700 10702 10708 10710 10705 10702 10705 10707 10707 10707 10708 10710 10713 10712 10708 10712 10718 10715 10710 10708 10708 10709 10709 10708 10709 10708 10708 10708 10708 10708 10707 10707 10707
10593 10597 10601 10605 10607 10610 10616 10624 10624 10622 10626 10624 10622 10627 10632 10634 10633 10636 10636 10634 10653 10672 10669 10665 10666 10671 10675 10673 10671 10668 10673 10683 10679 10672 10675 10674 10673 10674 10677 10681 10681 10682 10683 10681 10687 10696 10697 10693 10692 10691 10691 10693 10695 10696 10694 10692 10696 10703 10703 10698 10696 10699 10700 10701 10701 10702 10703 10706 10709 10707 10703 10708 10712 10708 10701 10701 10704 10704 10702 10702 10702 10702 10702 10701 10701 10701 10701 10701
10585 10588 10592 10597 10600 10602 10607 10613 10615 10617 10618 10616 10616 10618 10623 10625 10625 10629 10624 10622 10649 10669 10665 10662 10660 10662 10666 10665 10664 10663 10669 10676 10670 10666 10668 10665 10666 10668 10671 10675 10675 10674 10676 10677 10682 10689 10689 10686 10686 10685 10685 10689 10689 10687 10687 10686 10690 10696 10695 10692 10691 10692 10692 10693 10694 10696 10698 10700 10706 10705 10696 10697 10705 10704 10697 10696 10697 10696 10695 10696 10696 10695 10695 10694 10694 10695 10695 10695
10576 10579 10584 10587 10591 10594 10599 10605 10610 10610 10608 10610 10611 10610 10613 10614 10617 10619 10610 10616 10648 10663 10659 10659 10656 10655 10658 10658 10658 10658 10661 10665 10664 10662 10659 10656 10660 10663 10664 10668 10668 10669 10670 10671 10676 10681 10683 10681 10677 10678 10681 10683 10682 10680 10681 10681 10684 10688 10687 10686 10685 10685 10685 10686 10688 10690 10692 10696 10701 10699 10689 10687 10696 10700 10696 10691 10689 10689 10688 10689 10690 10689 10688 10688 10688 10688 10688 10688
10567 10571 10575 10577 10583 10588 10591 10598 10603 10600 10598 10601 10602 10601 10600 10602 10608 10604 10597 10617 10646 10651 10651 10653 10650 10649 10648 10648 10651 10651 10652 10654 10656 10655 10652 10652 10654 10655 10658 10660 10662 10664 10664 10664 10669 10674 10676 10673 10671 10673 10675 10675 10675 10675 10675 10676 10677 10679 10679 10679 10678 10678 10678 10679 10682 10683 10685 10692 10694 10689 10682 10679 10688 10697 10693 10684 10681 10682 10682 10681 10682 10682 10681 10682 10682 10682 10682 10681
10559 10563 10565 10570 10576 10580 10583 10590 10595 10591 10588 10590 10590 10588 10590 10594 10595 10587 10593 10621 10636 10637 10643 10645 10645 10646 10642 10641 10642 10641 10643 10645 10647 10647 10647 10648 10647 10649 10653 10654 10654 10656 10657 10660 10663 10665 10667 10667 10668 10668 10667 10669 10669 10668 10669 10669 10670 10670 10671 10671 10670 10672 10673 10674 10677 10676 10678 10684 10685 10680 10674 10674 10684 10691 10687 10680 10675 10674 10675 10675 10675 10676 10675 10675 10675 10675 10675 10674
10551 10554 10558 10562 10567 10571 10575 10582 10585 10580 10578 10580 10577 10577 10584 10585 10578 10578 10599 10620 10622 10628 10638 10638 10641 10641 10636 10634 10633 10634 10637 10638 10639 10640 10640 10641 10640 10643 10647 10647 10647 10648 10651 10656 10656 10657 10660 10662 10663 10663 10663 10663 10661 10661 10662 10662 10662 10662 10662 10664 10664 10665 10667 10669 10670 10670 10670 10674 10676 10674 10669 10671 10680 10682 10677 10676 10672 10667 10668 10668 10668 10669 10668 10668 10667 10667 10667 10666
10542 10546 10548 10553 10559 10563 10568 10571 10573 10571 10571 10571 10566 10568 10575 10570 10567 10582 10603 10611 10611 10621 10630 10630 10633 10632 10628 10628 10629 10629 10628 10627 10630 10631 10632 10633 10633 10637 10640 10641 10642 10642 10644 10648 10649 10650 10654 10656 10658 10658 10658 10656 10653 10654 10655 10655 10655 10655 10656 10658 10659 10658 10660 10663 10663 10661 10663 10666 10668 10668 10665 10669 10676 10672 10667 10668 10667 10664 10663 10662 10661 10661 10661 10661 10660 10659 10659 10659
10533 10536 10538 10544 10551 10554 10558 10560 10564 10564 10561 10558 10555 10557 10558 10556 10569 10590 10599 10601 10605 10612 10619 10620 10622 10621 10620 10621 10623 10623 10618 10619 10622 10622 10623 10625 10626 10632 10635 10634 10637 10636 10635 10639 10644 10645 10646 10650 10652 10650 10649 10648 10647 10647 10649 10650 10649 10650 10651 10652 10653 10652 10650 10653 10653 10654 10657 10660 10661 10662 10662 10666 10668 10664 10659 10659 10661 10661 10658 10656 10655 10654 10654 10653 10652 10651 10651 10651
10519 10522 10527 10534 10539 10544 10549 10551 10555 10555 10549 10546 10544 10542 10545 10557 10577 10590 10591 10593 10594 10598 10605 10607 10607 10609 10610 10612 10615 10614 10611 10614 10616 10613 10613 10617 10620 10625 10627 10628 10631 10630 10629 10631 10636 10638 10636 10641 10646 10643 10641 10642 10641 10641 10642 10644 10643 10645 10646 10645 10649 10646 10639 10641 10645 10648 10651 10653 10656 10657 10657 10659 10658 10656 10655 10653 10653 10653 10652 10651 10649 10648 10648 10646 10645 10644 10644 10643
10506 10510 10515 10523 10530 10537 10540 10541 10546 10545 10538 10534 10530 10528 10542 10564 10575 10577 10579 10581 10579 10582 10589 10592 10595 10599 10601 10605 10607 10606 10605 10608 10608 10605 10606 10609 10613 10619 10623 10625 10625 10623 10623 10622 10624 10628 10628 10632 10638 10636 10634 10636 10635 10635 10636 10637 10638 10641 10641 10641 10641 10636 10631 10634 10639 10641 10642 10645 10650 10652 10650 10650 10649 10651 10651 10647 10644 10643 10644 10645 10644 10643 10642 10639 10638 10637 10636 10635
10497 10501 10506 10515 10523 10528 10531 10533 10536 10534 10528 10523 10518 10522 10542 10559 10562 10563 10568 10569 10567 10571 10575 10579 10586 10590 10594 10598 10599 10599 10599 10600 10600 10600 10601 10603 10608 10615 10617 10618 10616 10614 10616 10611 10609 10617 10620 10623 10630 10630 10628 10630 10628 10627 10629 10631 10633 10635 10635 10634 10630 10626 10627 10630 10631 10634 10635 10636 10642 10645 10644 10642 10642 10645 10644 10638 10637 10637 10637 10638 10637 10636 10634 10632 10631 10629 10629 10629
10487 10489 10495 10508 10515 10517 10521 10524 10524 10521 10516 10511 10508 10519 10537 10547 10551 10555 10557 10557 10560 10562 10562 10567 10577 10581 10584 10588 10591 10592 10590 10591 10594 10594 10595 10597 10603 10610 10610 10608 10607 10607 10606 10600 10598 10608 10611 10612 10620 10623 10621 10622 10621 10620 10624 10627 10626 10625 10625 10624 10621 10621 10625 10624 10624 10628 10628 10628 10633 10636 10638 10637 10636 10637 10634 10630 10630 10631 10630 10630 10628 10626 10624 10623 10622 10622 10623 10623
10474 10476 10487 10501 10504 10506 10510 10512 10512 10508 10501 10496 10500 10517 10533 10538 10541 10543 10544 10547 10551 10552 10553 10558 10564 10568 10573 10577 10580 10582 10582 10583 10587 10587 10588 10592 10598 10604 10603 10599 10599 10598 10595 10590 10590 10599 10602 10601 10610 10616 10614 10612 10613 10615 10618 10619 10616 10614 10616 10618 10616 10617 10618 10616 10617 10619 10619 10621 10624 10626 10630 10632 10630 10629 10627 10624 10623 10623 10622 10621 10618 10616 10613 10613 10614 10615 10616 10616
10462 10466 10481 10493 10491 10494 10500 10499 10498 10493 10486 10487 10497 10514 10525 10526 10528 10531 10533 10537 10539 10542 10546 10549 10549 10552 10562 10567 10568 10573 10574 10573 10578 10580 10580 10587 10592 10596 10596 10592 10590 10589 10584 10580 10582 10590 10594 10593 10598 10605 10604 10603 10607 10611 10610 10608 10607 10607 10610 10613 10611 10609 10607 10608 10611 10611 10610 10613 10615 10615 10621 10626 10625 10623 10620 10618 10616 10614 10613 10610 10607 10605 10604 10605 10606 10607 10607 10606
10452 10456 10475 10484 10479 10484 10488 10482 10480 10478 10475 10481 10494 10507 10514 10515 10518 10523 10525 10527 10529 10533 10537 10538 10538 10541 10550 10556 10557 10563 10564 10562 10568 10571 10573 10581 10586 10587 10589 10585 10580 10578 10574 10573 10577 10582 10585 10584 10585 10592 10597 10598 10601 10603 10599 10598 10601 10602 10603 10605 10604 10602 10600 10600 10604 10604 10600 10602 10604 10607 10614 10620 10620 10617 10614 10610 10607 10605 10602 10599 10597 10597 10597 10597 10597 10598 10598 10597
10439 10448 10468 10474 10467 10472 10472 10464 10466 10467 10468 10478 10490 10497 10502 10504 10508 10511 10512 10514 10516 10521 10524 10526 10530 10532 10536 10543 10546 10550 10554 10553 10558 10563 10567 10574 10577 10577 10579 10576 10571 10570 10568 10568 10573 10575 10573 10573 10574 10581 10590 10590 10590 10592 10590 10591 10594 10594 10597 10600 10597 10593 10590 10588 10591 10594 10592 10595 10598 10599 10606 10614 10612 10608 10606 10603 10599 10595 10591 10589 10588 10589 10588 10588 10588 10589 10589 10590
10428 10439 10455 10459 10455 10457 10455 10450 10453 10455 10460 10473 10481 10483 10487 10492 10495 10498 10501 10503 10504 10508 10513 10517 10522 10524 10525 10531 10533 10537 10544 10544 10547 10555 10561 10564 10566 10568 10570 10569 10565 10564 10562 10563 10568 10567 10563 10563 10565 10570 10576 10578 10579 10583 10584 10585 10589 10590 10591 10588 10582 10580 10579 10577 10582 10585 10587 10592 10591 10589 10597 10606 10602 10597 10596 10593 10590 10587 10583 10581 10581 10580 10578 10577 10578 10579 10581 10582
10418 10426 10437 10443 10443 10442 10439 10437 10441 10448 10458 10467 10470 10473 10478 10481 10486 10489 10492 10493 10493 10496 10502 10507 10513 10515 10516 10518 10520 10525 10531 10533 10539 10547 10551 10553 10558 10562 10562 10560 10558 10558 10556 10557 10560 10557 10554 10554 10554 10555 10561 10568 10572 10576 10579 10580 10580 10578 10575 10571 10571 10573 10571 10572 10575 10575 10580 10587 10584 10581 10589 10592 10588 10587 10585 10581 10579 10578 10575 10574 10574 10572 10570 10569 10570 10571 10572 10572
10407 10413 10421 10428 10431 10429 10427 10430 10436 10443 10452 10456 10458 10464 10467 10469 10476 10480 10480 10481 10483 10486 10490 10497 10502 10504 10505 10506 10508 10513 10519 10524 10531 10536 10539 10544 10550 10553 10552 10550 10550 10550 10549 10550 10550 10547 10546 10546 10543 10542 10549 10560 10565 10567 10569 10569 10564 10562 10563 10564 10566 10566 10564 10565 10564 10564 10575 10580 10575 10574 10579 10576 10575 10577 10574 10570 10568 10566 10565 10564 10564 10563 10563 10564 10565 10564 10563 10561
10392 10399 10407 10413 10418 10418 10420 10425 10428 10431 10439 10443 10448 10453 10455 10459 10467 10468 10467 10470 10475 10477 10481 10486 10489 10490 10493 10496 10500 10506 10512 10516 10518 10523 10529 10535 10538 10541 10541 10539 10540 10540 10540 10541 10540 10537 10536 10536 10535 10536 10541 10547 10551 10554 10557 10556 10553 10553 10557 10556 10556 10556 10556 10555 10554 10560 10568 10567 10564 10568 10568 10563 10564 10565 10561 10560 10557 10555 10555 10554 10553 10554 10555 10556 10557 10555 10553 10551
10375 10385 10396 10402 10405 10408 10412 10416 10418 10423 10430 10434 10438 10443 10445 10450 10455 10454 10456 10463 10467 10468 10469 10471 10474 10479 10485 10490 10493 10497 10501 10502 10504 10511 10519 10522 10524 10528 10529 10528 10529 10530 10532 10531 10529 10527 10526 10528 10531 10532 10531 10532 10535 10540 10545 10546 10545 10545 10545 10546 10548 10548 10546 10546 10550 10555 10555 10551 10557 10563 10556 10551 10553 10551 10548 10549 10546 10543 10545 10544 10543 10545 10546 10546 10546 10543 10541 10540
10362 10373 10386 10390 10391 10395 10403 10408 10411 10416 10422 10422 10426 10431 10433 10437 10442 10443 10449 10455 10455 10454 10454 10457 10466 10475 10479 10481 10481 10482 10486 10490 10494 10502 10508 10510 10512 10514 10516 10517 10518 10520 10521 10520 10518 10517 10517 10521 10527 10523 10520 10521 10523 10526 10532 10535 10536 10535 10533 10537 10541 10539 10537 10540 10543 10543 10541 10542 10550 10551 10546 10544 10540 10535 10537 10538 10533 10532 10533 10535 10536 10536 10536 10536 10534 10532 10530 10529
10351 10362 10371 10375 10378 10385 10393 10400 10401 10404 10409 10411 10413 10418 10421 10426 10432 10436 10439 10441 10441 10443 10444 10448 10460 10467 10465 10466 10467 10467 10474 10481 10486 10492 10495 10496 10499 10500 10501 10504 10506 10508 10509 10508 10507 10507 10506 10513 10519 10514 10510 10513 10513 10514 10518 10521 10524 10526 10526 10529 10532 10531 10532 10533 10533 10532 10531 10535 10537 10533 10533 10536 10530 10526 10528 10524 10519 10520 10523 10526 10527 10526 10526 10525 10523 10521 10520 10519
10340 10349 10356 10361 10367 10373 10379 10386 10389 10391 10396 10398 10400 10406 10411 10417 10424 10428 10426 10425 10430 10436 10436 10441 10451 10453 10450 10452 10453 10456 10466 10473 10475 10479 10481 10481 10485 10488 10490 10492 10494 10496 10497 10497 10497 10496 10495 10501 10508 10504 10500 10502 10505 10507 10506 10506 10511 10514 10515 10519 10524 10526 10524 10522 10523 10523 10520 10523 10523 10516 10519 10527 10524 10518 10514 10509 10509 10511 10512 10514 10515 10515 10516 10514 10511 10511 10509 10507
10327 10336 10342 10346 10352 10359 10364 10369 10375 10379 10382 10384 10388 10397 10403 10407 10413 10417 10414 10413 10420 10425 10427 10434 10440 10438 10436 10439 10442 10448 10457 10460 10460 10466 10469 10469 10473 10477 10478 10479 10482 10484 10485 10486 10486 10485 10486 10490 10495 10494 10490 10492 10499 10499 10495 10497 10497 10495 10502 10514 10519 10518 10514 10510 10512 10512 10509 10510 10508 10504 10510 10517 10512 10505 10501 10499 10500 10501 10500 10502 10503 10503 10504 10503 10501 10499 10496 10494
10313 10321 10329 10333 10338 10345 10350 10355 10360 10364 10369 10374 10380 10387 10393 10397 10400 10402 10401 10404 10410 10413 10417 10424 10427 10424 10425 10428 10433 10440 10443 10443 10448 10454 10456 10457 10461 10464 10465 10467 10470 10472 10473 10475 10475 10476 10478 10479 10483 10483 10479 10481 10488 10488 10487 10486 10479 10479 10496 10510 10508 10504 10503 10499 10500 10500 10498 10496 10495 10495 10501 10502 10496 10494 10493 10489 10488 10489 10490 10491 10490 10490 10490 10489 10487 10485 10482 10479